Location: A�t Lahcen
(32.8243°N, 5.4246°W)
Time: 00:47:11
(UTC+00:00)

Meteor 2-10 Rocket - Pass Details

Date: 27 January 2021
Orbit: 733 x 885 km, 81.2° (Epoch: 26 February)

Event Time Altitude Azimuth Distance (km) Brightness Sun altitude
Rises 06:41:44 0° 186° (S) 3,463 7.0 -8.4°
Reaches altitude 10° 06:44:10 10° 186° (S) 2,534 6.3 -7.9°
Maximum altitude 06:49:58 90° 111° (ESE) 889 3.9 -6.7°
Drops below altitude 10° 06:55:47 10° 8° (N) 2,531 6.1 -5.6°
Sets 06:58:13 0° 9° (N) 3,460 6.8 -5.1°
